| time (UTC) | temp F | wind direction | speed MPH | gust MPH | rain 1hr in | rain 24hr in | rain mn in | humidity % | barometer mb |
| 20260506101559 | 77 | 159 | 7.0 | 11.0 | 0.00 | 0.00 | 0.00 | 90 | 1008.8 |
| 20260506100058 | 77 | 171 | 8.0 | 13.0 | 0.00 | 0.00 | 0.00 | 91 | 1008.7 |
| 20260506094558 | 76 | 139 | 8.0 | 15.0 | 0.00 | 0.00 | 0.00 | 91 | 1008.5 |
| 20260506093057 | 77 | 133 | 7.0 | 14.0 | 0.00 | 0.00 | 0.00 | 91 | 1008.2 |
| 20260506091559 | 77 | 168 | 9.0 | 12.0 | 0.00 | 0.00 | 0.00 | 90 | 1008.2 |
| 20260506090057 | 77 | 132 | 8.0 | 14.0 | 0.00 | 0.00 | 0.00 | 90 | 1008.1 |
| 20260506084555 | 76 | 144 | 8.0 | 15.0 | 0.00 | 0.00 | 0.00 | 90 | 1008.0 |
| 20260506083055 | 76 | 161 | 9.0 | 13.0 | 0.00 | 0.00 | 0.00 | 90 | 1008.2 |
| 20260506081559 | 76 | 152 | 7.0 | 12.0 | 0.00 | 0.00 | 0.00 | 90 | 1008.3 |
| 20260506080106 | 76 | 165 | 10.0 | 16.0 | 0.00 | 0.00 | 0.00 | 90 | 1008.3 |
| 20260506073050 | 76 | 156 | 9.0 | 15.0 | 0.00 | 0.00 | 0.00 | 90 | 1009.0 |
| 20260506071547 | 77 | 144 | 8.0 | 14.0 | 0.00 | 0.00 | 0.00 | 90 | 1009.2 |
| 20260506061545 | 77 | 164 | 10.0 | 20.0 | 0.00 | 0.00 | 0.00 | 90 | 1009.3 |
| 20260506044538 | 77 | 159 | 15.0 | 21.0 | 0.00 | 0.00 | 0.00 | 89 | 1009.3 |
| 20260506043047 | 77 | 155 | 13.0 | 19.0 | 0.00 | 0.00 | 0.00 | 89 | 1009.4 |
| 20260506041538 | 77 | 159 | 15.0 | 21.0 | 0.00 | 0.00 | 0.00 | 89 | 1009.4 |
| 20260506040045 | 77 | 169 | 15.0 | 23.0 | 0.00 | 0.00 | 0.00 | 89 | 1009.5 |
| 20260506034537 | 77 | 166 | 14.0 | 20.0 | 0.00 | 0.00 | 0.00 | 89 | 1009.2 |
| 20260506033035 | 77 | 153 | 15.0 | 20.0 | 0.00 | 0.00 | 0.00 | 89 | 1009.2 |
| 20260506031536 | 77 | 162 | 15.0 | 22.0 | 0.00 | 0.00 | 0.00 | 89 | 1009.0 |
| 20260506030034 | 77 | 168 | 15.0 | 19.0 | 0.00 | 0.00 | 0.00 | 89 | 1008.7 |
| 20260506024542 | 77 | 148 | 11.0 | 22.0 | 0.00 | 0.00 | 0.00 | 88 | 1008.5 |
| 20260506023033 | 77 | 168 | 15.0 | 21.0 | 0.00 | 0.00 | 0.00 | 89 | 1008.4 |
| 20260506021549 | 77 | 172 | 15.0 | 22.0 | 0.00 | 0.00 | 0.00 | 89 | 1008.2 |
| 20260506020032 | 77 | 161 | 14.0 | 21.0 | 0.00 | 0.00 | 0.00 | 89 | 1008.1 |
| 20260506014532 | 77 | 164 | 14.0 | 18.0 | 0.00 | 0.00 | 0.00 | 89 | 1007.9 |
| 20260506013031 | 77 | 142 | 14.0 | 22.0 | 0.00 | 0.00 | 0.00 | 88 | 1007.7 |
| 20260506011532 | 77 | 140 | 14.0 | 20.0 | 0.00 | 0.00 | 0.00 | 88 | 1007.6 |
| 20260506010043 | 77 | 139 | 13.0 | 20.0 | 0.00 | 0.00 | 0.00 | 88 | 1007.5 |
| 20260506004530 | 77 | 168 | 14.0 | 21.0 | 0.00 | 0.00 | 0.00 | 88 | 1007.3 |
| 20260506003030 | 78 | 158 | 12.0 | 18.0 | 0.00 | 0.00 | 0.00 | 88 | 1007.2 |
| 20260506001530 | 78 | 153 | 11.0 | 21.0 | 0.00 | 0.00 | 0.00 | 88 | 1007.3 |
| 20260506000031 | 78 | 149 | 14.0 | 19.0 | 0.00 | 0.00 | 0.00 | 86 | 1007.3 |
| 20260505234539 | 78 | 157 | 16.0 | 21.0 | 0.00 | 0.00 | 0.00 | 86 | 1007.3 |
| 20260505233028 | 78 | 133 | 13.0 | 22.0 | 0.00 | 0.00 | 0.00 | 87 | 1007.5 |
| 20260505231529 | 79 | 140 | 13.0 | 21.0 | 0.00 | 0.00 | 0.00 | 86 | 1007.5 |
| 20260505230025 | 79 | 139 | 14.0 | 20.0 | 0.00 | 0.00 | 0.00 | 86 | 1007.6 |
| 20260505224530 | 79 | 166 | 13.0 | 21.0 | 0.00 | 0.00 | 0.00 | 86 | 1007.6 |
| 20260505223024 | 79 | 138 | 12.0 | 23.0 | 0.00 | 0.00 | 0.00 | 86 | 1007.7 |
| 20260505221523 | 79 | 156 | 14.0 | 21.0 | 0.00 | 0.00 | 0.00 | 86 | 1007.6 |
| 20260505220021 | 80 | 119 | 12.0 | 21.0 | 0.00 | 0.00 | 0.00 | 85 | 1007.7 |
| 20260505214519 | 79 | 152 | 16.0 | 22.0 | 0.00 | 0.00 | 0.00 | 85 | 1007.8 |
| 20260505213020 | 79 | 125 | 14.0 | 21.0 | 0.00 | 0.00 | 0.00 | 85 | 1008.0 |
| 20260505211533 | 79 | 172 | 14.0 | 19.0 | 0.00 | 0.00 | 0.00 | 85 | 1008.1 |
| 20260505210014 | 79 | 167 | 14.0 | 19.0 | 0.00 | 0.00 | 0.00 | 85 | 1008.5 |
| 20260505204513 | 79 | 167 | 13.0 | 21.0 | 0.00 | 0.00 | 0.00 | 85 | 1008.7 |
| 20260505203011 | 80 | 171 | 11.0 | 19.0 | 0.00 | 0.00 | 0.00 | 84 | 1008.9 |
| 20260505201510 | 80 | 186 | 14.0 | 22.0 | 0.00 | 0.00 | 0.00 | 84 | 1009.0 |
| 20260505200010 | 80 | 170 | 14.0 | 24.0 | 0.00 | 0.00 | 0.00 | 84 | 1009.3 |
| 20260505194509 | 80 | 173 | 14.0 | 20.0 | 0.00 | 0.00 | 0.00 | 83 | 1009.4 |
| 20260505193009 | 80 | 196 | 12.0 | 20.0 | 0.00 | 0.00 | 0.00 | 83 | 1009.5 |
| 20260505191508 | 80 | 149 | 12.0 | 21.0 | 0.00 | 0.00 | 0.00 | 84 | 1009.6 |
| 20260505190012 | 80 | 180 | 13.0 | 19.0 | 0.00 | 0.00 | 0.00 | 84 | 1009.5 |
| 20260505184516 | 80 | 184 | 16.0 | 21.0 | 0.00 | 0.00 | 0.00 | 84 | 1009.4 |
| 20260505183007 | 80 | 171 | 14.0 | 20.0 | 0.00 | 0.00 | 0.00 | 84 | 1009.7 |
| 20260505181506 | 80 | 178 | 15.0 | 26.0 | 0.00 | 0.00 | 0.00 | 83 | 1009.8 |
| 20260505180005 | 80 | 188 | 15.0 | 24.0 | 0.00 | 0.00 | 0.00 | 83 | 1009.9 |
| 20260505174504 | 79 | 157 | 16.0 | 24.0 | 0.00 | 0.00 | 0.00 | 84 | 1010.0 |
| 20260505173003 | 79 | 171 | 16.0 | 24.0 | 0.00 | 0.00 | 0.00 | 84 | 1010.2 |
| 20260505171506 | 79 | 169 | 15.0 | 20.0 | 0.00 | 0.00 | 0.00 | 84 | 1010.2 |
| 20260505170004 | 79 | 189 | 17.0 | 24.0 | 0.00 | 0.00 | 0.00 | 84 | 1010.3 |
| 20260505164501 | 79 | 182 | 11.0 | 19.0 | 0.00 | 0.00 | 0.00 | 85 | 1010.4 |
| 20260505163100 | 78 | 185 | 14.0 | 17.0 | 0.00 | 0.00 | 0.00 | 85 | 1010.4 |
| 20260505161559 | 79 | 184 | 11.0 | 18.0 | 0.00 | 0.00 | 0.00 | 85 | 1010.3 |
| 20260505153057 | 78 | 173 | 15.0 | 22.0 | 0.00 | 0.00 | 0.00 | 86 | 1009.9 |
| 20260505151555 | 78 | 183 | 12.0 | 20.0 | 0.00 | 0.00 | 0.00 | 86 | 1009.9 |
| 20260505124541 | 76 | 188 | 13.0 | 19.0 | 0.00 | 0.00 | 0.00 | 88 | 1009.4 |
| 20260505123041 | 75 | 179 | 13.0 | 17.0 | 0.00 | 0.00 | 0.00 | 89 | 1009.4 |
| 20260505121547 | 75 | 169 | 12.0 | 18.0 | 0.00 | 0.00 | 0.00 | 88 | 1009.3 |
| 20260505120035 | 75 | 194 | 11.0 | 15.0 | 0.00 | 0.00 | 0.00 | 89 | 1009.4 |
| 20260505114530 | 75 | 146 | 9.0 | 16.0 | 0.00 | 0.00 | 0.00 | 89 | 1009.3 |
| 20260505113037 | 75 | 169 | 10.0 | 15.0 | 0.00 | 0.00 | 0.00 | 88 | 1009.2 |
| 20260505111538 | 75 | 172 | 12.0 | 16.0 | 0.00 | 0.00 | 0.00 | 88 | 1009.1 |